Content
SEND FEEDBACK

Daily
Averages
Monthly
Summary
Canada

AMHERST, NOVA SCOTIA


Home > North America > Canada > Nova Scotia
Elevation: 66 feet     Latitude: 45 46N     Longitude: 064 15W

WEATHER
 
SELECT A DAY
Number of Records: 97,072;   Date Range: 6/19/04 - 8/20/14
 
SHARE

PRINT THIS DATA

[ ← Previous Day ]
WEATHER ALMANAC - NOVEMBER 9, 2013
[ Next Day → ]
[ °C ]   °F
Weather ElementAverageHighLow
Temperature34.5 °F36.5 °F (3:00 pm)30 °F (10:00 pm)
Dewpoint24.1 °F27 °F (1:00 am)20.5 °F (10:00 am)
Humidity64.6 %75 % (11:00 pm)46 % (2:00 pm)
Barometer29.87 in30.06 in (10:00 pm)29.70 in (1:00 am)
Wind Speed14.5 mph26.5 mph (10:00 am)
Wind Gust34.5 mph (10:00 am)
Weather ElementAverage
Wind DirectionWNW (278.1 °)

Weather ElementTotal
Precipitation---
Heating Degree Days31.8 (Base 65)
Averaged from 27 records on November 9, 2013
WEATHER CONDITIONS BREAKOUT
WIND DIRECTION BREAKOUT
WEATHER BY HOUR - NOVEMBER 9, 2013
[ °C ]   °F
Local TimeTemperatureDewpointHumidityBarometerVisibilityWind DirectionWind SpeedGust SpeedPrecipitationEventsConditions
1:00 AM35.8 °F27.0 °F70 %29.70 inWest (270°)13.8 mph19.6 mph
2:00 AM35.0 °F26.0 °F60 %29.71 inWest (270°)13.8 mph
2:00 AM35.2 °F26.2 °F70 %29.71 inWest (270°)13.8 mph19.6 mph
3:00 AM34.7 °F26.4 °F72 %29.72 inWest (260°)11.5 mph
4:00 AM34.7 °F25.9 °F70 %29.72 inWest (270°)17.3 mph28.8 mph
5:00 AM34.7 °F26.2 °F71 %29.73 inWest (280°)17.3 mph28.8 mph
6:00 AM35.1 °F26.6 °F71 %29.74 inWest (280°)19.6 mph27.6 mph
7:00 AM34.3 °F26.6 °F73 %29.78 inWest (280°)17.3 mph24.2 mph
8:00 AM34.0 °F25.0 °F60 %29.81 inWest (280°)17.3 mph
8:00 AM34.0 °F25.2 °F70 %29.81 inWest (280°)17.3 mph23.0 mph
9:00 AM34.2 °F23.2 °F64 %29.83 inWNW (290°)19.6 mph28.8 mph
10:00 AM34.9 °F20.5 °F56 %29.84 inWNW (300°)26.5 mph34.5 mph
11:00 AM34.9 °F22.5 °F61 %29.86 inWNW (290°)18.4 mph26.5 mph
12:00 PM36.1 °F21.4 °F55 %29.86 inWNW (300°)17.3 mph24.2 mph
1:00 PM36.0 °F22.6 °F58 %29.88 inWNW (290°)16.1 mph
2:00 PM36.0 °F23.0 °F46 %29.90 inWNW (290°)16.1 mph
2:00 PM36.0 °F22.6 °F58 %29.90 inWNW (290°)16.1 mph21.9 mph
3:00 PM36.5 °F23.2 °F59 %29.91 inWNW (290°)15.0 mph
4:00 PM36.1 °F23.5 °F60 %29.93 inWNW (300°)16.1 mph
5:00 PM36.5 °F24.8 °F63 %29.96 inWest (280°)17.3 mph
6:00 PM36.0 °F23.5 °F61 %29.98 inWNW (290°)13.8 mph
7:00 PM35.4 °F23.9 °F63 %29.99 inWNW (300°)13.8 mph
8:00 PM32.0 °F23.0 °F60 %30.01 inNW (310°)8.1 mph
8:00 PM31.8 °F23.4 °F71 %30.01 inNW (310°)8.1 mph
9:00 PM31.1 °F23.4 °F73 %30.04 inSW (220°)3.5 mph
10:00 PM30.0 °F22.5 °F73 %30.06 inSW (230°)3.5 mph
11:00 PM30.0 °F22.8 °F75 %30.06 inSouth (190°)3.5 mph
Hourly data recorded from CXNP, located miles away from Amherst, Nova Scotia







STORIES FROM OUR PARTNERS